Location: Stamford Observatory
(41.1241°N, 73.5498°W)
Time: 18:48:24
(UTC-04:00)

Daily predictions for brighter satellites

Satellite Brightness Start Highest point End
(mag) Time Altitude Azimuth Time Altitude Azimuth Time Altitude Azimuth
BREEZE-M DEB (TANK) 3.7 19:46:46 10° SW 19:50:32 59° SE 20:03:43 10° ENE
Cosmos 2154 Rocket 4.5 19:58:20 10° SSE 20:04:05 40° E 20:09:49 10° NNE
SPOT 3 Rocket 4.5 19:59:30 10° S 20:04:33 53° W 20:09:36 10° NNW
Thor Agena Rocket 3.9 20:00:03 10° NNE 20:05:03 44° E 20:10:04 10° S
Cosmos 44 Rocket 3.2 20:01:45 10° SSW 20:06:26 67° ESE 20:11:17 10° NE
Cosmos 2184 Rocket 4.0 20:01:35 10° S 20:07:44 76° E 20:13:54 10° N
Cosmos 2221 2.6 20:03:46 10° S 20:08:02 86° W 20:12:19 10° N
Cosmos 1346 Rocket 3.3 20:05:54 10° SSW 20:09:56 68° W 20:14:01 10° N
Cosmos 1300 2.9 20:10:07 10° SSW 20:13:56 75° W 20:17:46 10° N
Cosmos 2360 Rocket 2.7 20:10:03 10° SSW 20:15:37 66° WNW 20:21:15 10° NNE
Cosmos 1805 Rocket 3.5 20:13:17 10° N 20:17:38 65° E 20:21:56 10° SSE
NOSS 2-1 (C) 3.2 20:14:49 10° SSW 20:18:19 52° ESE 20:22:06 10° NE
NOSS 2-1 (D) 3.2 20:15:45 10° SSW 20:19:18 55° ESE 20:23:06 10° NE
OE (NEXTSAT) 4.3 20:15:49 10° WSW 20:19:22 74° SSE 20:22:56 10° ENE
Resurs 01 Rocket 2.1 20:16:15 10° SE 20:20:25 41° ENE 20:24:37 10° N
Cosmos 2333 Rocket 2.8 20:16:38 10° SSE 20:21:39 33° ESE 20:26:40 10° NE
HJ-1C 4.4 20:20:08 10° S 20:23:22 49° W 20:26:39 10° NNW
ATLAS 2AS CENTAUR R/B 3.6 20:16:48 10° NNW 20:24:21 43° NE 20:30:50 12° ESE
Cosmos 1328 Rocket 4.5 20:21:12 10° SSE 20:24:57 28° E 20:28:44 10° NNE
CZ-2D R/B 3.6 20:22:38 10° S 20:26:24 68° WSW 20:30:13 10° NNW
COSMOS 2428 2.7 20:21:07 10° S 20:26:46 64° ESE 20:32:27 10° NNE
Meteor 2-15 4.4 20:22:20 10° N 20:28:29 69° E 20:34:33 10° SSE
Spot 2 Rocket 4.0 20:24:06 10° SE 20:28:53 42° ENE 20:33:40 10° N
Cosmos 2333 4.1 20:24:28 10° SSW 20:30:05 71° ESE 20:35:42 10° NNE
Cosmos 1844 Rocket 2.7 20:29:37 10° NNW 20:35:19 75° ENE 20:40:58 10° SSE
Cosmos 1844 3.9 20:29:45 10° NNW 20:35:23 59° ENE 20:40:34 12° SE
Meteor 2-21 4.4 20:30:32 10° S 20:36:36 74° E 20:42:47 10° NNE
SJ-11-01 4.4 20:33:23 10° SSE 20:37:56 54° ENE 20:42:29 10° N
Cosmos 1455 2.6 20:34:42 10° SSE 20:38:17 40° E 20:41:54 10° NNE
Cosmos 2237 Rocket 3.0 20:38:51 10° SSE 20:43:35 29° ESE 20:48:21 10° NE
Cosmos 1892 2.7 20:40:05 10° N 20:43:58 68° E 20:47:45 10° SSE
Cosmos 2219 Rocket 2.2 20:38:55 10° S 20:44:29 62° ESE 20:50:04 10° NNE
ERS-2 2.9 20:41:13 10° S 20:44:47 52° WSW 20:48:24 10° NNW
Lacrosse 5 4.4 20:45:15 10° NNW 20:47:39 13° N 20:50:02 10° NNE
BREEZE-M DEB (TANK) 2.9 20:43:45 10° WNW 20:48:19 50° NNE 20:49:38 23° E
NOSS 2-1 (E) 3.3 20:46:01 10° SW 20:49:37 77° NW 20:53:40 10° NNE
Cosmos 1408 3.8 20:46:56 10° NNE 20:49:57 24° ENE 20:50:51 22° E
NOSS 0 Rocket 4.2 20:45:19 10° S 20:51:06 44° ESE 20:56:56 10° NE
ATLAS CENTAUR R/B 1.5 20:48:27 10° S 20:51:51 39° ESE 20:55:24 10° NE
Cosmos 2278 Rocket 3.0 20:47:05 10° N 20:52:19 36° ENE 20:55:30 20° ESE
Timation 1 Rocket 4.3 20:50:52 10° NNW 20:56:53 89° WSW 21:01:56 15° SSE
SL-8 Rocket 4.3 20:51:05 10° SSE 20:57:01 46° E 21:02:58 10° NNE
USA 186 2.8 20:55:36 10° SSW 20:57:35 28° W 20:59:37 10° NNW
Cosmos 1666 Rocket 3.8 20:53:29 10° NNW 20:57:58 74° W 21:02:24 10° S
NOAA 11 4.2 20:53:30 13° SSE 20:58:21 68° ENE 21:03:50 10° N
Resurs 1-3 3.8 20:54:28 10° S 20:58:50 72° W 21:03:13 10° NNW
Genesis I 4.0 20:55:28 10° NNW 20:59:19 38° NE 21:01:00 26° E
H-2A R/B 3.1 20:58:30 21° E 21:00:25 26° ENE 21:04:32 10° NNE
NOSS 3-3 (A) 3.9 20:55:23 10° SSW 21:01:21 81° ESE 21:07:57 10° NE
NOSS 3-3 (C) 3.9 20:55:29 10° SSW 21:01:28 80° ESE 21:08:03 10° NE
OAO 2 Rocket 4.1 20:57:50 10° WSW 21:02:37 38° S 21:04:58 24° SE
Cosmos 1933 Rocket 4.0 20:59:48 10° N 21:04:01 43° ENE 21:05:47 28° SE
YAOGAN 6 3.8 21:02:37 10° S 21:06:00 41° W 21:09:28 10° NNW
USA 267 3.8 21:05:26 10° ENE 21:11:14 33° SE 21:16:59 10° S
ERS-1 Rocket 3.9 21:10:18 25° E 21:11:51 30° ENE 21:16:12 10° N
Sich 1 4.1 21:08:59 10° NNW 21:13:02 43° W 21:17:03 10° SSW
Nadezhda 3 Rocket 4.5 21:08:07 10° NNW 21:14:19 63° W 21:20:34 10° S
Cosmos 1151 Rocket 2.9 21:13:26 19° S 21:16:22 68° E 21:20:37 10° NNE
Cosmos 220 Rocket 3.9 21:12:59 10° NNW 21:17:20 84° ENE 21:19:12 34° SSE
Cosmos 2251 Rocket 4.4 21:12:55 10° NNW 21:18:05 48° WSW 21:23:05 10° S
Cosmos 1939 Rocket 4.4 21:16:57 10° SSW 21:20:26 32° W 21:23:57 10° NNW
Cosmos 1825 2.1 21:24:11 10° N 21:27:58 65° E 21:28:24 58° ESE
Cosmos 864 Rocket 4.5 21:25:49 24° SSE 21:29:28 58° E 21:35:28 10° NNE
Meteor 2-3 Rocket 4.1 21:24:23 10° NNW 21:29:54 62° W 21:34:38 14° S
Cosmos 1633 Rocket 4.5 21:27:50 10° NNW 21:31:49 36° W 21:35:48 10° SSW
Cosmos 2098 Rocket 3.2 21:31:02 43° SE 21:32:10 55° E 21:36:08 10° NNE
SL-16 R/B 3.2 21:33:19 27° E 21:33:19 27° E 21:37:00 10° NE
Cosmos 2056 Rocket 3.9 21:32:53 40° SE 21:33:38 43° ESE 21:38:43 10° NNE
Cosmos 1869 3.2 21:34:42 61° SE 21:35:04 66° E 21:39:04 10° NNE
Cosmos 2228 Rocket 3.3 21:32:02 14° SSW 21:35:42 69° W 21:40:06 10° N
SL-8 R/B 3.5 21:35:26 10° SW 21:40:11 68° SE 21:41:34 44° E
Helios 1B rocket 4.5 21:36:55 10° NE 21:38:01 15° NE 21:38:01 15° NE
Cosmos 1515 Rocket 4.1 21:37:19 13° SSW 21:41:13 60° W 21:45:39 10° N
Cosmos 405 4.2 21:42:33 10° N 21:44:48 31° NNE 21:44:48 31° NNE
ARGOS 3.0 21:44:34 41° SSE 21:46:30 89° ENE 21:51:53 10° NNW
Helios 1A 3.5 21:49:42 45° NE 21:49:42 45° NE 21:53:22 10° N
GEOS 3 Rocket 3.5 21:44:37 10° NE 21:49:59 72° SE 21:55:13 10° SSW
Cosmos 1624 Rocket 3.9 21:50:09 55° SSE 21:51:00 64° ESE 21:56:09 10° NNE
BREEZE-M DEB (TANK) 3.9 21:49:19 10° NW 21:51:02 29° NW 21:51:02 29° NW
SL-08 RB Rocket 3.5 21:52:57 72° SE 21:53:22 83° ENE 21:57:52 10° N
MetOp-B 4.0 21:51:53 48° SSE 21:53:27 90° WSW 21:58:51 10° NNW
Cosmos 1190 Rocket 4.1 21:50:44 10° N 21:55:56 55° ENE 21:56:23 53° E
Resurs 01 Rocket 4.1 21:54:03 10° SW 21:57:04 18° W 22:00:07 10° NW
Cosmos 1980 4.1 21:53:45 10° SW 21:59:21 62° WNW 22:05:01 10° NNE
Cosmos 2297 4.0 21:56:52 10° NNW 22:02:24 51° ENE 22:02:58 49° E
Cosmos 1727 Rocket 3.8 21:57:01 10° N 22:03:14 86° E 22:04:57 51° SSE
BREEZE-M DEB (TANK) 4.1 22:00:18 10° WNW 22:04:19 22° NNW 22:05:12 19° NNE
Cosmos 2333 Rocket 3.7 22:00:40 10° WSW 22:05:50 35° WNW 22:11:01 10° N
Cosmos 1140 Rocket 4.4 22:01:57 10° N 22:06:25 34° ENE 22:06:25 34° ENE
Cosmos 1821 Rocket 4.5 22:08:27 43° E 22:08:27 43° E 22:14:08 10° NNE
Cosmos 2369 Rocket 4.2 22:09:24 10° NNE 22:12:39 15° NE 22:13:27 15° ENE
Meteor 2-10 Rocket 3.8 22:11:14 38° SSW 22:13:28 74° W 22:19:19 10° N
ATLAS 2AS CENTAUR R/B 3.5 22:08:02 10° NW 22:15:28 48° WSW 22:18:17 33° SSW
DMSP B5D2-2 4.0 22:13:03 10° NNE 22:18:05 75° ENE 22:18:05 75° ENE
Cosmos 1862 4.3 22:15:33 10° N 22:18:24 44° N 22:18:24 44° N
Terra 2.9 22:21:54 35° NE 22:21:54 35° NE 22:25:17 10° N
Cosmos 2237 Rocket 3.4 22:22:12 10° SW 22:27:26 40° WNW 22:32:44 10° N
SPOT 5 3.1 22:30:51 62° NW 22:30:51 62° NW 22:34:39 10° NNW
ATLAS CENTAUR R/B 3.9 22:28:20 10° W 22:31:00 18° NW 22:33:45 10° N
SPOT 1/Viking Rocket 3.5 22:31:21 81° NW 22:31:21 81° NW 22:36:21 10° NNW
USA 81 4.4 22:27:19 10° NNW 22:32:30 57° W 22:32:58 55° WSW
Lacrosse 5 4.0 22:29:04 10° NNW 22:32:31 18° NNE 22:34:13 15° NE
Cosmos 2278 Rocket 3.4 22:31:17 10° NW 22:36:18 33° WSW 22:37:22 31° SW
CZ-4C R/B 4.4 22:41:44 13° NE 22:41:44 13° NE 22:42:26 10° NE
H-2A R/B 3.0 22:39:07 36° WSW 22:39:40 37° W 22:44:18 10° NNW
NOSS 3-4 (A) 3.7 22:38:53 10° NW 22:45:59 86° WSW 22:46:43 75° SSE
NOSS 3-4 (C) 3.7 22:38:59 10° NW 22:46:06 87° WSW 22:46:49 75° SSE
Cosmos 407 Rocket 4.2 22:43:38 10° NNW 22:48:01 48° W 22:48:01 48° W
ATLAS 5 CENTAUR R/B 4.0 22:44:04 10° NNW 22:48:38 23° NE 22:49:40 22° NE
ERS-1 Rocket 4.3 22:50:18 31° WSW 22:50:33 31° W 22:55:01 10° NW
USA 267 3.4 22:48:00 10° NE 22:54:30 70° NW 23:01:00 10° WSW
Cosmos 2344 3.5 23:10:53 56° SW 23:12:46 82° NW 23:21:10 10° NE
SL-16 R/B 3.3 23:15:04 36° W 23:16:06 40° WNW 23:21:25 10° N
USA 234 3.4 23:27:52 67° NNE 23:27:52 67° NNE 23:34:05 10° NW
Cosmos 1934 Rocket 4.5 23:31:58 54° NW 23:31:58 54° NW 23:37:04 10° N
Cosmos 1943 Rocket 3.5 23:28:35 10° N 23:32:07 33° NNE 23:32:07 33° NNE
SeaSat 1 4.4 23:55:37 25° NNE 23:55:37 25° NNE 23:58:05 10° N
